DRMIKE Weather Reports


Display with metric or nautical units.
time (UTC)temp
F
wind
direction
speed
MPH
gust
MPH
rain 1hr
in
rain 24hr
in
rain mn
in
humidity
%
barometer
mb
20260507233125 60 0 0.0 2.0 0.00 0.07 0.05 37 1005.3
20260507231918 60 0 0.0 7.0 0.00 0.07 0.05 36 1005.2
20260507224600 61 236 0.0 3.0 0.00 0.08 0.05 34 1005.0
20260507223103 62 0 0.0 6.0 0.00 0.08 0.05 34 1004.9
20260507221604 63 0 0.0 9.0 0.00 0.08 0.05 32 1004.7
20260507220059 64 0 1.0 5.0 0.00 0.08 0.05 32 1004.6
20260507214600 65 0 1.0 8.0 0.00 0.08 0.05 32 1004.6
20260507213058 66 334 0.0 4.0 0.00 0.08 0.05 32 1004.4
20260507211611 66 0 0.0 11.0 0.00 0.08 0.05 31 1004.3
20260507204559 67 340 0.0 8.0 0.00 0.09 0.05 32 1004.5
20260507203059 68 0 0.0 5.0 0.00 0.09 0.05 28 1004.4
20260507201601 68 360 0.0 6.0 0.00 0.09 0.05 28 1004.4
20260507200107 69 0 1.0 8.0 0.00 0.09 0.05 31 1004.5
20260507194601 69 335 1.0 8.0 0.00 0.09 0.05 30 1004.6
20260507193103 69 211 0.0 10.0 0.00 0.09 0.05 31 1004.6
20260507191600 70 0 0.0 8.0 0.00 0.09 0.05 29 1004.8
20260507184601 69 49 0.0 17.0 0.00 0.09 0.05 34 1004.8
20260507183100 70 0 0.0 10.0 0.00 0.09 0.05 30 1005.0
20260507181600 70 9 0.0 8.0 0.00 0.09 0.05 33 1005.1
20260507180109 69 207 1.0 9.0 0.00 0.09 0.05 34 1005.3
20260507174636 69 0 2.0 7.0 0.00 0.09 0.05 31 1005.2
20260507173100 69 0 0.0 9.0 0.00 0.09 0.05 39 1005.2
20260507171621 68 0 1.0 10.0 0.00 0.09 0.05 42 1005.4
20260507164601 67 0 1.0 8.0 0.00 0.09 0.05 46 1005.5
20260507163101 67 218 0.0 3.0 0.00 0.09 0.05 46 1005.8
20260507161600 69 330 0.0 8.0 0.00 0.09 0.05 44 1005.9
20260507160118 69 0 0.0 7.0 0.00 0.09 0.05 47 1006.0
20260507154600 68 13 0.0 5.0 0.00 0.09 0.05 44 1006.1
20260507153100 69 49 0.0 4.0 0.00 0.09 0.05 45 1006.2
20260507151601 69 0 0.0 8.0 0.00 0.09 0.05 44 1006.4
20260507150058 67 0 0.0 5.0 0.00 0.09 0.05 49 1006.5
20260507144559 66 0 0.0 6.0 0.00 0.09 0.05 46 1006.7
20260507143119 65 277 0.0 4.0 0.00 0.09 0.05 51 1006.9
20260507141633 63 324 0.0 5.0 0.00 0.09 0.05 52 1006.8
20260507140113 60 314 0.0 3.0 0.00 0.09 0.05 59 1006.7
20260507134612 57 0 0.0 5.0 0.00 0.09 0.05 62 1006.8
20260507133106 55 352 0.0 4.0 0.00 0.09 0.05 69 1006.9
20260507131622 53 0 0.0 1.0 0.00 0.09 0.05 71 1007.1
20260507130108 52 331 2.0 9.0 0.00 0.09 0.05 74 1007.4
20260507124604 51 5 0.0 8.0 0.00 0.09 0.05 82 1007.4
20260507123105 50 0 0.0 6.0 0.00 0.09 0.05 87 1007.3
20260507121601 50 0 0.0 4.0 0.00 0.09 0.05 90 1007.3
20260507120059 50 5 0.0 0.0 0.00 0.09 0.05 91 1007.3
20260507114558 50 0 0.0 1.0 0.00 0.09 0.05 91 1007.0
20260507113134 50 0 0.0 0.0 0.00 0.09 0.05 91 1007.2
20260507111604 50 0 0.0 0.0 0.00 0.09 0.05 91 1007.1
20260507110105 50 0 0.0 0.0 0.01 0.09 0.05 90 1007.3
20260507104614 50 0 0.0 0.0 0.01 0.09 0.05 90 1007.2
20260507103100 50 0 0.0 0.0 0.02 0.09 0.05 90 1006.6
20260507101600 50 0 0.0 0.0 0.04 0.09 0.05 89 1006.9
20260507100101 50 0 0.0 0.0 0.03 0.08 0.04 89 1006.4
20260507094620 51 0 0.0 1.0 0.03 0.08 0.04 88 1006.6
20260507093100 51 0 0.0 0.0 0.02 0.07 0.03 88 1006.6
20260507091600 51 0 0.0 4.0 0.00 0.05 0.01 88 1006.7
20260507090101 51 0 0.0 1.0 0.00 0.05 0.01 88 1006.7
20260507084602 52 0 0.0 0.0 0.01 0.05 0.01 87 1006.4
20260507083100 52 0 0.0 2.0 0.01 0.05 0.01 87 1006.2
20260507081558 52 0 0.0 3.0 0.01 0.05 0.01 86 1006.2
20260507074558 53 0 0.0 4.0 0.00 0.04 0.00 86 1006.2
20260507073110 54 0 0.0 3.0 0.00 0.04 0.00 86 1005.7
20260507071600 54 0 0.0 2.0 0.00 0.04 0.00 87 1005.8
20260507070110 54 0 0.0 2.0 0.00 0.04 0.00 86 1005.5
20260507064606 55 0 0.0 3.0 0.00 0.04 0.00 87 1005.7
20260507063059 56 348 0.0 3.0 0.00 0.04 0.00 88 1005.5
20260507061559 56 0 0.0 3.0 0.00 0.04 0.00 90 1005.6
20260507060100 57 0 0.0 4.0 0.00 0.04 0.00 90 1005.6
20260507054600 57 0 0.0 2.0 0.00 0.04 0.00 90 1005.8
20260507053100 57 0 0.0 4.0 0.00 0.04 0.00 90 1005.6
20260507051608 58 0 0.0 4.0 0.00 0.04 0.00 91 1005.6
20260507050110 58 0 0.0 4.0 0.00 0.04 0.00 91 1005.7
20260507044600 59 0 0.0 5.0 0.00 0.04 0.00 93 1005.4
20260507043100 60 271 0.0 3.0 0.00 0.04 0.00 94 1005.6
20260507041601 60 0 0.0 4.0 0.00 0.04 0.00 94 1005.4
20260507040106 60 0 0.0 6.0 0.00 0.04 0.00 94 1005.5
20260507034605 60 0 0.0 3.0 0.00 0.04 0.04 94 1005.5
20260507033103 60 0 0.0 4.0 0.00 0.04 0.04 94 1005.4
20260507031604 60 0 0.0 0.0 0.00 0.04 0.04 94 1005.0
20260507024601 59 0 0.0 5.0 0.00 0.04 0.04 94 1005.0
20260507023057 59 0 0.0 7.0 0.00 0.04 0.04 94 1005.2
20260507021616 59 0 0.0 4.0 0.00 0.04 0.04 94 1005.0
20260507020059 59 0 0.0 3.0 0.00 0.04 0.04 94 1005.2
20260507014601 59 0 0.0 4.0 0.00 0.04 0.04 94 1005.2
20260507013100 59 0 0.0 9.0 0.00 0.04 0.04 94 1005.3
20260507011605 58 155 0.0 7.0 0.00 0.04 0.04 94 1005.4
20260507004559 58 0 0.0 4.0 0.01 0.04 0.04 93 1005.3
20260507003059 58 0 0.0 5.0 0.02 0.04 0.04 93 1005.5
20260507001606 58 0 0.0 5.0 0.02 0.04 0.04 93 1005.3
20260507000101 58 0 1.0 7.0 0.02 0.04 0.04 93 1005.3
20260506234624 58 244 1.0 9.0 0.01 0.03 0.03 92 1005.3